Location: ??????
(41.3794°N, 22.5014°E)
Time: 22:21:37
(UTC+00:00)

H-2A R/B - Pass Details

Date: 30 November 2020
Orbit: 529 x 652 km, 98.3° (Epoch: 18 January)

Event Time Altitude Azimuth Distance (km) Brightness Sun altitude
Rises 15:56:10 0° 177° (S) 2,886 6.2 -10.2°
Reaches altitude 10° 15:58:26 10° 183° (S) 1,966 5.4 -10.6°
Maximum altitude 16:02:35 51° 259° (W) 761 3.5 -11.3°
Drops below altitude 10° 16:06:38 10° 336° (NNW) 1,908 5.1 -12.0°
Sets 16:08:48 0° 342° (NNW) 2,791 5.9 -12.4°
